Location: Albuquerque Trailhead
(34.7934°N, 106.3736°W)
Time: 20:54:38
(UTC+00:00)

NOAA 19 - Pass Details

Date: 02 April 2023
Orbit: 840 x 859 km, 99.1° (Epoch: 31 May)

Event Time Altitude Azimuth Distance (km) Brightness Sun altitude
Exits shadow 02:55:10 18° 159° (SSE) 1,983 6.8 -18.5°
Maximum altitude 02:59:22 78° 75° (ENE) 868 5.1 -19.3°
Drops below altitude 10° 03:04:51 10° 350° (N) 2,468 8.0 -20.3°
Sets 03:07:12 0° 349° (N) 3,404 8.8 -20.8°
